Oxford, NC

9:01 AM EST on December 15, 2019 (GMT -0500)
Henderson-Oxford

Weather History for KHNZ - October, 2019

Change the Weather History Date:

Friday, October 18, 2019

  Actual Average (KTDF) Record (KTDF)
Temperature  
Mean Temperature 50 °F -  
Max Temperature 62 °F 68 °F 85 °F (1963)
Min Temperature 37 °F 43 °F 27 °F (1976)
Degree Days  
Heating Degree Days 16    
Moisture  
Dew Point 35 °F    
Average Humidity 63    
Maximum Humidity 94    
Minimum Humidity 33    
Precipitation  
Precipitation 0.00 in - - ()
Sea Level Pressure  
Sea Level Pressure 30.00 in    
Wind  
Wind Speed 1 mph (NW)    
Max Wind Speed 10 mph    
Max Gust Speed -    
Visibility 10 miles    
Events      
Averages and records for this station are not official NWS values.
T = Trace of Precipitation, MM = Missing Value Source: NWS Daily Summary

Daily Weather History Graph

Daily Weather History Graph

Search for Another Location

Airport or City:

Astronomy

Oct. 18, 2019 Rise Set
Actual Time 7:23 AM EDT 6:34 PM EDT
Civil Twilight 6:57 AM EDT 7:00 PM EDT
Nautical Twilight 6:27 AM EDT 7:30 PM EDT
Astronomical Twilight 5:57 AM EDT 8:00 PM EDT
Moon 9:55 PM EDT (10/18) 11:48 AM EDT (10/18)
Length of Visible Light 12h 02m
Length of Day
11h 10m
Waning Gibbous, 79% of the Moon is Illuminated
Oct 18
Waning Gibbous
Oct 21
Last Quarter
Oct 27
New
Nov 4
First Quarter
Nov 12
Full

Hourly Weather History & Observations

Time (EDT) Temp. Windchill Dew Point Humidity Pressure Visibility Wind Dir Wind Speed Gust Speed Precip Events Conditions
12:15 AM 48.0 °F - 32.5 °F 55% 29.91 in 10.0 mi Calm Calm - N/A   Clear
12:35 AM 47.5 °F - 32.4 °F 56% 29.91 in 10.0 mi Calm Calm - N/A   Clear
12:55 AM 47.1 °F - 32.9 °F 58% 29.91 in 10.0 mi Calm Calm - N/A   Clear
1:15 AM 46.9 °F - 32.9 °F 58% 29.91 in 10.0 mi Calm Calm - N/A   Clear
1:35 AM 46.2 °F - 32.9 °F 60% 29.91 in 10.0 mi Calm Calm - N/A   Clear
1:55 AM 45.5 °F - 33.3 °F 62% 29.92 in 10.0 mi Calm Calm - N/A   Clear
2:15 AM 44.6 °F - 33.4 °F 65% 29.92 in 10.0 mi Calm Calm - N/A   Clear
2:35 AM 41.9 °F - 34.9 °F 76% 29.93 in 10.0 mi Calm Calm - N/A   Clear
2:55 AM 43.0 °F - 33.8 °F 70% 29.93 in 10.0 mi Calm Calm - N/A   Clear
3:15 AM 41.0 °F - 34.7 °F 78% 29.94 in 10.0 mi Calm Calm - N/A   Clear
3:35 AM 41.2 °F - 34.0 °F 76% 29.94 in 10.0 mi Calm Calm - N/A   Clear
4:15 AM 39.9 °F - 35.1 °F 83% 29.94 in 10.0 mi Calm Calm - N/A   Clear
4:35 AM 38.5 °F - 34.5 °F 86% 29.95 in 10.0 mi Calm Calm - N/A   Clear
4:55 AM 41.0 °F 38.0 °F 34.7 °F 78% 29.96 in 10.0 mi West 4.6 mph - N/A   Clear
5:15 AM 41.0 °F - 34.2 °F 77% 29.96 in 10.0 mi Calm Calm - N/A   Clear
5:35 AM 37.9 °F - 34.2 °F 86% 29.97 in 10.0 mi Calm Calm - N/A   Clear
5:55 AM 39.2 °F - 34.2 °F 82% 29.98 in 10.0 mi Calm Calm - N/A   Clear
6:15 AM 40.3 °F 36.3 °F 34.2 °F 79% 29.98 in 10.0 mi West 5.8 mph - N/A   Clear
6:35 AM 41.9 °F - 34.0 °F 73% 29.98 in 10.0 mi Calm Calm - N/A   Clear
6:55 AM 38.5 °F - 33.8 °F 83% 29.99 in 10.0 mi Calm Calm - N/A   Clear
7:15 AM 38.5 °F - 34.0 °F 84% 30.00 in 10.0 mi Calm Calm - N/A   Clear
7:35 AM 39.6 °F - 34.7 °F 83% 30.00 in 10.0 mi Calm Calm - N/A   Clear
7:55 AM 39.4 °F - 35.1 °F 84% 30.01 in 10.0 mi Calm Calm - N/A   Clear
8:15 AM 40.8 °F - 36.0 °F 83% 30.01 in 10.0 mi Calm Calm - N/A   Clear
8:35 AM 43.3 °F - 36.1 °F 76% 30.02 in 10.0 mi Calm Calm - N/A   Clear
8:55 AM 45.9 °F - 36.5 °F 70% 30.02 in 10.0 mi Calm Calm - N/A   Clear
9:15 AM 48.2 °F - 36.5 °F 64% 30.02 in 10.0 mi Calm Calm - N/A   Clear
9:35 AM 50.7 °F - 36.5 °F 58% 30.02 in 10.0 mi WNW 6.9 mph - N/A   Clear
9:55 AM 51.6 °F - 36.1 °F 56% 30.02 in 10.0 mi NNW 6.9 mph - N/A   Clear
10:35 AM 54.7 °F - 34.5 °F 47% 30.02 in 10.0 mi NNW 10.4 mph - N/A   Clear
10:55 AM 54.9 °F - 34.3 °F 46% 30.02 in 10.0 mi Calm Calm - N/A   Clear
11:15 AM 55.0 °F - 32.9 °F 43% 30.03 in 10.0 mi NNW 6.9 mph - N/A   Clear
11:35 AM 55.4 °F - 32.9 °F 43% 30.03 in 10.0 mi Calm Calm - N/A   Clear
11:55 AM 56.8 °F - 33.3 °F 41% 30.03 in 10.0 mi North 3.5 mph - N/A   Clear
12:15 PM 57.6 °F - 32.9 °F 39% 30.03 in 10.0 mi Calm Calm - N/A   Clear
12:35 PM 57.9 °F - 32.4 °F 38% 30.03 in 10.0 mi Calm Calm - N/A   Clear
12:55 PM 58.6 °F - 33.3 °F 38% 30.03 in 10.0 mi Calm Calm - N/A   Clear
1:15 PM 59.5 °F - 33.3 °F 37% 30.02 in 10.0 mi Calm Calm - N/A   Clear
1:35 PM 59.4 °F - 33.1 °F 37% 30.02 in 10.0 mi Calm Calm - N/A   Clear
1:55 PM 60.1 °F - 33.3 °F 36% 30.01 in 10.0 mi Calm Calm - N/A   Clear
2:15 PM 60.4 °F - 33.8 °F 37% 30.01 in 10.0 mi West 5.8 mph - N/A   Clear
2:35 PM 61.0 °F - 33.1 °F 35% 30.00 in 10.0 mi Calm Calm - N/A   Clear
3:15 PM 61.3 °F - 32.2 °F 33% 29.99 in 10.0 mi Calm Calm - N/A   Clear
3:35 PM 62.4 °F - 33.3 °F 34% 29.99 in 10.0 mi Calm Calm - N/A   Clear
3:55 PM 61.9 °F - 32.4 °F 33% 30.00 in 10.0 mi Calm Calm - N/A   Clear
4:35 PM 61.9 °F - 32.7 °F 34% 30.01 in 10.0 mi Calm Calm - N/A   Clear
4:55 PM 61.9 °F - 32.2 °F 33% 30.01 in 10.0 mi Calm Calm - N/A   Clear
5:15 PM 61.7 °F - 33.3 °F 34% 30.01 in 10.0 mi Calm Calm - N/A   Clear
5:35 PM 61.0 °F - 33.4 °F 36% 30.01 in 10.0 mi Calm Calm - N/A   Clear
5:55 PM 59.9 °F - 33.3 °F 37% 30.01 in 10.0 mi Calm Calm - N/A   Clear
6:15 PM 58.1 °F - 33.8 °F 40% 30.01 in 10.0 mi Calm Calm - N/A   Clear
6:35 PM 56.1 °F - 34.3 °F 44% 30.02 in 10.0 mi Calm Calm - N/A   Clear
6:55 PM 51.1 °F - 38.1 °F 61% 30.02 in 10.0 mi Calm Calm - N/A   Clear
7:15 PM 48.7 °F - 38.8 °F 69% 30.02 in 10.0 mi Calm Calm - N/A   Clear
7:35 PM 47.3 °F - 39.0 °F 73% 30.04 in 10.0 mi Calm Calm - N/A   Clear
7:55 PM 46.8 °F - 39.4 °F 75% 30.04 in 10.0 mi Calm Calm - N/A   Clear
8:15 PM 47.3 °F - 39.2 °F 73% 30.04 in 10.0 mi Calm Calm - N/A   Clear
8:35 PM 45.1 °F - 39.4 °F 80% 30.04 in 10.0 mi Calm Calm - N/A   Clear
8:55 PM 45.0 °F - 40.8 °F 85% 30.04 in 10.0 mi Calm Calm - N/A   Clear
9:15 PM 44.2 °F - 39.7 °F 84% 30.04 in 10.0 mi Calm Calm - N/A   Clear
9:35 PM 42.4 °F - 39.7 °F 90% 30.04 in 10.0 mi Calm Calm - N/A   Clear
9:55 PM 43.7 °F - 40.6 °F 89% 30.05 in 10.0 mi Calm Calm - N/A   Clear
10:15 PM 43.9 °F - 39.6 °F 85% 30.06 in 10.0 mi Calm Calm - N/A   Clear
10:35 PM 40.6 °F - 38.3 °F 91% 30.06 in 10.0 mi Calm Calm - N/A   Clear
10:55 PM 41.4 °F - 39.6 °F 93% 30.06 in 10.0 mi Calm Calm - N/A   Clear
11:15 PM 42.1 °F - 40.3 °F 93% 30.06 in 10.0 mi Calm Calm - N/A   Clear
11:35 PM 39.6 °F - 37.9 °F 94% 30.06 in 10.0 mi Calm Calm - N/A   Clear
11:55 PM 41.5 °F - 39.6 °F 93% 30.06 in 10.0 mi Calm Calm - N/A   Clear